Retour au catalogue

STARLINK-4332

ActifCommunicationsSSO
NORAD 53190·PAYLOAD·🇺🇸 United States

Lancé Jul 22, 2022 depuis Vandenberg Space Force Base

Loading…

Prochains Passages (prochaines 24 heures)

TLE

FraisSource: CelesTrak SupGP

Époque: Sep 15, 2026, 02:25 UTC

1 53190C 22084B   26258.10118056  .00056045  00000+0  17396-2 0  2584
2 53190  97.2830 313.9563 0001349  84.6663  51.3307 15.33414845    17

Suivez STARLINK-4332 en temps réel avec AllMySat

Download on the App Store